www.pogodaiklimat.ru

Погода и климат >> Архив погоды >> Россия >> Чукотка >> Островное


АРХИВ ПОГОДЫ в Островном

Время (UTC), дата Ветер
(напр.,м/с)
 
Видим.   Явления Облачность Т
(С)
Тd
(С)
f
(%)
Тe
(С)
Тes
(С)
Комфортность P
(гПа)
Po
(гПа)
Тmin
(С)
Tmax
(С)
R
(мм)
R24
(мм)
S
(см)
03 19.04 СЗ 5
{13}
20 км слаб. ливневой снег 9/8 600 м
[Cb cap Ac trans]
-5.1 -8.3 78 -12 -12 1016.0 1003.9
06 19.04 З 6
{12}
20 км слаб. ливневой снег 10/8 600 м
[Cb cap Ac und]
-7.2 -10.1 80 -15 -15 1018.2 1006.0
09 19.04 З 7
{12}
20 км слаб. ливневой снег {метель} 9/8 600 м
[Cb cap Ac trans]
-9.0 -13.4 70 -18 -18 1021.4 1009.0 +2.0 0.4
12 19.04 З 6
{12}
20 км позёмок {ливн. осадки} 9/8 600 м
[Cb cap Ac trans]
-8.8 -12.6 74 -17 -17 1022.2 1009.8
15 19.04 СЗ 4
{11}
50 км {метель} 5/1 600 м
[Sc Ac trans Ci fib]
-12.3 -17.5 65 -19 -19 1024.7 1012.1
18 19.04 З 4
{10}
50 км {метель} 3/0
[Ci fib]
-12.1 -17.3 65 -19 -19 1025.1 1012.5
21 19.04 З 2
{7}
50 км ясно -9.4 -18.4 48 -14 -10 1025.1 1012.6 -13.6 0.0 23
00 20.04 З 3
{6}
50 км ясно -8.3 -17.2 49 -14 -8 1023.7 1011.3
03 20.04 З 2
{6}
50 км 10/0
[Cs]
-6.3 -17.1 42 -10 -5 1022.4 1010.1
06 20.04 ЮЗ 2
{5}
50 км 10/3 600 м
[Sc Ac trans Ci fib]
-6.3 -16.3 45 -10 -9 1021.4 1009.1
09 20.04 З 3
{6}
50 км 10/0
[Ac trans Ci fib]
-7.7 -16.8 48 -13 -13 1021.9 1009.5 -6.1 0.0
12 20.04 СЗ 1
{5}
50 км 3/0
[Ci fib]
-12.3 -18.5 60 -15 -15 1023.3 1010.7
15 20.04 ЮВ 2
{3}
50 км ясно -21.5 -24.0 80 -28 -28 1025.0 1011.9
18 20.04 ЮВ 1
{3}
50 км ясно -23.3 -26.5 75 -27 -26 1026.0 1012.8
21 20.04 СВ 1
{7}
50 км 3/3 600 м
[Sc]
-11.3 -19.7 50 -13 -11 1025.8 1013.2 -25.7 23
00 21.04 З 5
{9}
50 км 5/4 600 м
[Sc Ac trans Ci fib]
-8.2 -17.1 49 -15 -13 1025.4 1013.0
03 21.04 З 4
{9}
50 км 6/3 600 м
[Sc Ac trans]
-5.8 -16.1 44 -12 -9 1025.5 1013.2
06 21.04 З 4
{7}
50 км 3/3 600 м
[Sc]
-4.8 -15.7 42 -10 -9 1025.0 1012.7
09 21.04 СЗ 1
{7}
50 км 3/3 600 м
[Sc]
-7.3 -16.1 49 -9 -9 1025.6 1013.2 -4.6
12 21.04 ЮВ 1
{4}
50 км ясно -15.4 -18.8 75 -18 -18 1026.1 1013.7
15 21.04 штиль 0
{3}
50 км ясно -23.0 -24.9 84 -23 -23 1027.0 1013.9
18 21.04 Ю 1
{2}
50 км 1/0
[Ac trans]
-21.8 -24.3 80 -25 -25 1026.5 1014.3
21 21.04 В 2
{3}
50 км 3/0
[Ac trans]
-15.0 -21.0 60 -20 -17 1025.6 1012.9 -23.6 23
00 22.04 ЮВ 2
{4}
50 км 3/0
[Ac trans Ci fib]
-7.6 -16.6 48 -12 -6 1023.8 1011.4
03 22.04 ЮВ 3
{6}
50 км 1/0
[Ci fib]
-3.2 -14.3 42 -8 -3 1022.4 1010.2
06 22.04 В 3
{7}
50 км 1/0
[Ci fib]
-3.0 -14.5 41 -7 -6 1021.4 1009.3
09 22.04 ЮВ 3
{7}
50 км 1/0
[Ci fib]
-5.7 -14.6 49 -11 -11 1021.6 1009.3 -2.7
12 22.04 В 4
{7}
50 км ясно -8.5 -15.5 57 -15 -15 1021.9 1009.5
15 22.04 В 4
{11}
50 км ясно -10.1 -16.4 60 -17 -17 1021.9 1009.4
18 22.04 В 5
{9}
50 км ясно -9.7 -16.8 56 -17 -17 1021.6 1009.1
21 22.04 В 5
{11}
50 км 3/0
[Ci fib]
-6.7 -16.4 46 -14 -12 1020.9 1008.6 -10.5 22
00 23.04 В 6
{10}
50 км ясно -4.2 -14.9 43 -11 -8 1020.6 1008.4
03 23.04 Ю 5
{10}
50 км ясно -0.9 -13.9 37 -6 -3 1019.1 1007.1
06 23.04 Ю 4
{6}
50 км ясно +0.2 -13.0 36 -4 -3 1018.5 1006.5
09 23.04 ЮВ 2
{7}
50 км ясно -2.5 -14.1 40 -6 -6 1018.9 1006.9 +0.4
12 23.04 ЮВ 2
{5}
50 км ясно -5.1 -14.8 46 -9 -9 1019.4 1007.3
15 23.04 ЮВ 5
{7}
50 км ясно -8.6 -15.7 56 -16 -16 1016.2 1006.9
18 23.04 В 1
{6}
50 км ясно -12.8 -18.0 65 -15 -15 1019.6 1007.1
21 23.04 В 4
{8}
50 км ясно -6.1 -16.0 45 -12 -10 1018.7 1006.5 -13.5 22
00 24.04 В 5
{7}
50 км ясно -2.1 -13.9 40 -8 -4 1017.3 1005.3
03 24.04 ЮВ 4
{8}
50 км ясно +0.8 -13.1 35 -3 +1 1015.5 1003.6
06 24.04 ЮВ 4
{7}
50 км ясно +1.6 -9.9 42 -3 -1 1014.5 1002.6
09 24.04 ЮВ 2
{7}
50 км ясно -1.0 -10.2 50 -4 -4 1015.3 1003.3 +2.1
12 24.04 В 4
{7}
50 км 3/3 600 м
[Sc]
-4.8 -11.0 62 -11 -11 1015.3 1003.2
15 24.04 В 2
{7}
50 км 9/8 600 м
[Sc Ac trans Ci fib]
-6.2 -11.1 68 -10 -10 1015.2 1003.0
18 24.04 В 3
{9}
20 км слаб. снег 10/8 600 м
[Sc Ac trans Cs]
-6.0 -9.5 76 -11 -11 1015.0 1002.8
21 24.04 ЮВ 5
{10}
20 км слаб. снег 10/8 600 м
[Sc Ac trans Cs]
-5.0 -8.2 78 -12 -12 1014.9 1002.8 -8.0 0.0 20
00 25.04 ЮВ 5
{9}
20 км снежные кристаллы 10/8 600 м
[Sc Ac trans Cs]
-2.5 -6.2 76 -9 -9 1014.6 1002.6
03 25.04 ЮВ 4
{8}
50 км {снег} 8/5 600 м
[Sc Ac trans Ci fib]
+0.8 -4.9 66 -4 -2 1013.7 1001.9
06 25.04 В 4
{8}
50 км {снег} 9/8 600 м
[Sc Ac trans]
+1.2 -4.4 66 -4 -3 1013.7 1001.9
09 25.04 ЮВ 3
{7}
50 км 10/5 600 м
[Sc Ac und]
+0.9 -5.1 64 -3 -3 1013.9 1002.1 +1.4 0.0
12 25.04 В 6
{9}
50 км 10/5 600 м
[Sc Ac und]
-1.4 -5.8 72 -8 -8 1014.5 1002.5
15 25.04 В 6
{10}
20 км 10/5 600 м
[Sc Ac und]
-3.0 -5.4 83 -10 -10 1014.8 1002.8
18 25.04 В 7
{11}
50 км 4/1 600 м
[Sc Ac trans Ci fib]
-4.3 -7.4 79 -12 -12 1014.8 1002.7
21 25.04 ЮВ 6
{10}
50 км 4/3 600 м
[Sc Ac trans]
-2.2 -6.9 70 -9 -8 1014.1 1002.1 -4.4 19
00 26.04 ЮВ 3
{11}
50 км 4/4 600 м
[Sc]
+0.9 -6.7 57 -3 +1 1013.3 1001.5

 

Местоположение метеостанции Островное (Чукотка, Россия): широта 68.12 долгота 164.10 высота над уровнем моря 94 м.

В архиве по умолчанию представлена погода в Островном за последнюю неделю. Архивные данные за месяц целиком и за предыдущие месяцы, начиная с января 2011 года, Вы можете получить, выбрав интересующий диапазон дат из раскрывающегося списка и нажав кнопку "Ввод!".


*Определитесь, кто Вы:
робот инопланетянин человек

Внимание! Время в таблицах - всемирное. Для получения местного времени необходимо прибавить поправку, которая равна 12 ч.

Смотрите также архив погоды в соседних городах и на ближайших метеорологических станциях:

Погода в Билибино (Чукотка, Россия) (96 км)
Погода в Анюйске (Чукотка, Россия) (110 км)
Погода в Константиновской (Чукотка, Россия) (124 км)
Погода в Черском (Якутия, Россия) (133 км)
Погода в Баимке (Чукотка, Россия) (177 км)
Погода в Раучуе (Чукотка, Россия) (181 км)
Погода в Бухте Амбарчик (Чукотка, Россия) (182 км)
Погода в Илирнее (Чукотка, Россия) (187 км)
Погода в Колымской (Якутия, Россия) (235 км)
Погода на Айон Острове (Чукотка, Россия) (252 км)

Пояснения к столбцам:

Ветер - указаны скорость ветра в м/с - средняя за 10 мин, порывы в срок и между сроками (в фигурных скобках) и направление, откуда дует ветер: С - северный, СВ - северо-восточный, В - восточный, ЮВ - юго-восточный, Ю - южный, ЮЗ - юго-западный, З - западный, СЗ - северо-западный.
Видимость - горизонтальная дальность видимости в метрах или километрах. При видимости от 1 до 10 км при отсутствии осадков обычно наблюдается дымка, при ухудшении видимости до 1 км и менее - туман. В сухую погоду видимость может ухудшаться дымом, пылью или мглою.
Явления - указаны атмосферные явления, наблюдавшиеся в срок или в последний час перед сроком; фигурными скобками обозначены явления, наблюдавшиеся между сроками (за 1-3 часа до срока); квадратными скобками обозначены град или гололедные отложения с указанием их диаметра в мм.
Облачность - указаны через наклонную черту общая и нижняя облачность в баллах и высота нижней границы облаков в метрах; квадратными скобками обозначены формы облаков: Ci - перистые, Cs - перисто-слоистые, Cc - перисто-кучевые, Ac - высококучевые, As - высокослоистые, Sc - слоисто-кучевые, Ns - слоисто-дождевые, Cu - кучевые, Cb - кучево-дождевые. Подробнее классификацию облаков см. в Атласе облаков (PDF).
T - Температура воздуха - температура, измеренная на высоте 2 м над землей.
Td - Температура точки росы - температура, при понижении до которой содержащийся в воздухе водяной пар достигнет насыщения.
f - Относительная влажность воздуха - влажноcть воздуха, измеренная на высоте 2 м над землей.
Te - Эффективная температура - температура, которую ощущает одетый по сезону человек в тени. Характеристика душности погоды. При расчете учитывается влияние влажности воздуха и скорости ветра на теплоощущения человека.
Tes - Эффективная температура на солнце - температура, которую ощущает человек, с поправкой на солнечный нагрев. Характеристика знойности погоды. Зависит от высоты солнца над горизонтом, облачности и скорости ветра. Ночью, в пасмурную погоду, а также при ветре 12 м/с и более поправка равна нулю.
P - Атмосферное давление - приведенное к уровню моря атмосферное давление.
Po - Атмосферное давление - измеренное на уровне метеостанции атмосферное давление.
Tmin - Минимальная температура - минимум температуры воздуха на высоте 2 м над землей.
Tmax - Максимальная температура - максимум температуры воздуха на высоте 2 м над землей.
R - Количество осадков - Количество выпавших осадков за период времени, мм. При наведении курсора мыши на число - период времени, за который выпало указанное количество осадков.
R24 - Количество осадков - Количество выпавших осадков за 24 часа, мм.
S - Снежный покров - Высота снежного покрова, см. При наведении курсора мыши на число - состояние снежного покрова и степень покрытия местности в баллах.